Year,Month,Day,Hour,Minute,Value (Times are PST for temperature in C)
2016,03,29,00,00,4.80
2016,03,29,00,01,4.80
2016,03,29,00,02,4.80
2016,03,29,00,03,4.80
2016,03,29,00,04,4.80
2016,03,29,00,05,4.80
2016,03,29,00,06,4.80
2016,03,29,00,07,4.80
2016,03,29,00,08,4.70
2016,03,29,00,09,4.70
2016,03,29,00,10,4.70
2016,03,29,00,11,4.70
2016,03,29,00,12,4.70
2016,03,29,00,13,4.60
2016,03,29,00,14,4.60
2016,03,29,00,15,4.60
2016,03,29,00,16,4.70
2016,03,29,00,17,4.70
2016,03,29,00,18,4.70
2016,03,29,00,19,4.60
2016,03,29,00,20,4.60
2016,03,29,00,21,4.60
2016,03,29,00,22,4.60
2016,03,29,00,23,4.60
2016,03,29,00,24,4.60
2016,03,29,00,25,4.60
2016,03,29,00,26,4.60
2016,03,29,00,27,4.50
2016,03,29,00,28,4.50
2016,03,29,00,29,4.50
2016,03,29,00,30,4.40
2016,03,29,00,31,4.40
2016,03,29,00,32,4.40
2016,03,29,00,33,4.30
2016,03,29,00,34,4.30
2016,03,29,00,35,4.30
2016,03,29,00,36,4.30
2016,03,29,00,37,4.30
2016,03,29,00,38,4.20
2016,03,29,00,39,4.20
2016,03,29,00,40,4.20
2016,03,29,00,41,4.20
2016,03,29,00,42,4.20
2016,03,29,00,43,4.20
2016,03,29,00,44,4.10
2016,03,29,00,45,4.10
2016,03,29,00,46,4.10
2016,03,29,00,47,4.10
2016,03,29,00,48,4.10
2016,03,29,00,49,4.10
2016,03,29,00,50,4.10
2016,03,29,00,51,4.10
2016,03,29,00,52,4.10
2016,03,29,00,53,4.10
2016,03,29,00,54,4.10
2016,03,29,00,55,4.10
2016,03,29,00,56,4.10
2016,03,29,00,57,4.10
2016,03,29,00,58,4.10
2016,03,29,00,59,4.10
2016,03,29,01,00,4.10
2016,03,29,01,01,4.00
2016,03,29,01,02,4.00
2016,03,29,01,03,4.00
2016,03,29,01,04,4.00
2016,03,29,01,05,3.90
2016,03,29,01,06,3.90
2016,03,29,01,07,4.00
2016,03,29,01,08,4.00
2016,03,29,01,09,3.90
2016,03,29,01,10,3.90
2016,03,29,01,11,3.90
2016,03,29,01,12,3.90
2016,03,29,01,13,3.90
2016,03,29,01,14,3.90
2016,03,29,01,15,3.90
2016,03,29,01,16,3.90
2016,03,29,01,17,3.90
2016,03,29,01,18,3.90
2016,03,29,01,19,3.90
2016,03,29,01,20,3.80
2016,03,29,01,21,3.80
2016,03,29,01,22,3.80
2016,03,29,01,23,3.80
2016,03,29,01,24,3.80
2016,03,29,01,25,3.70
2016,03,29,01,26,3.70
2016,03,29,01,27,3.70
2016,03,29,01,28,3.70
2016,03,29,01,29,3.70
2016,03,29,01,30,3.70
2016,03,29,01,31,3.70
2016,03,29,01,32,3.70
2016,03,29,01,33,3.70
2016,03,29,01,34,3.60
2016,03,29,01,35,3.60
2016,03,29,01,36,3.60
2016,03,29,01,37,3.60
2016,03,29,01,38,3.60
2016,03,29,01,39,3.60
2016,03,29,01,40,3.60
2016,03,29,01,41,3.60
2016,03,29,01,42,3.50
2016,03,29,01,43,3.50
2016,03,29,01,44,3.50
2016,03,29,01,45,3.50
2016,03,29,01,46,3.50
2016,03,29,01,47,3.50
2016,03,29,01,48,3.50
2016,03,29,01,49,3.40
2016,03,29,01,50,3.40
2016,03,29,01,51,3.40
2016,03,29,01,52,3.40
2016,03,29,01,53,3.40
2016,03,29,01,54,3.40
2016,03,29,01,55,3.40
2016,03,29,01,56,3.40
2016,03,29,01,57,3.40
2016,03,29,01,58,3.40
2016,03,29,01,59,3.40
2016,03,29,02,00,3.30
2016,03,29,02,01,3.30
2016,03,29,02,02,3.30
2016,03,29,02,03,3.30
2016,03,29,02,04,3.30
2016,03,29,02,05,3.30
2016,03,29,02,06,3.30
2016,03,29,02,07,3.30
2016,03,29,02,08,3.30
2016,03,29,02,09,3.30
2016,03,29,02,10,3.30
2016,03,29,02,11,3.30
2016,03,29,02,12,3.30
2016,03,29,02,13,3.30
2016,03,29,02,14,3.30
2016,03,29,02,15,3.30
2016,03,29,02,16,3.30
2016,03,29,02,17,3.30
2016,03,29,02,18,3.30
2016,03,29,02,19,3.30
2016,03,29,02,20,3.30
2016,03,29,02,21,3.30
2016,03,29,02,22,3.30
2016,03,29,02,23,3.30
2016,03,29,02,24,3.30
2016,03,29,02,25,3.30
2016,03,29,02,26,3.30
2016,03,29,02,27,3.30
2016,03,29,02,28,3.30
2016,03,29,02,29,3.20
2016,03,29,02,30,3.20
2016,03,29,02,31,3.20
2016,03,29,02,32,3.20
2016,03,29,02,33,3.20
2016,03,29,02,34,3.20
2016,03,29,02,35,3.20
2016,03,29,02,36,3.20
2016,03,29,02,37,3.20
2016,03,29,02,38,3.10
2016,03,29,02,39,3.10
2016,03,29,02,40,3.10
2016,03,29,02,41,3.10
2016,03,29,02,42,3.00
2016,03,29,02,43,3.00
2016,03,29,02,44,3.00
2016,03,29,02,45,3.00
2016,03,29,02,46,2.90
2016,03,29,02,47,2.90
2016,03,29,02,48,2.90
2016,03,29,02,49,2.90
2016,03,29,02,50,2.90
2016,03,29,02,51,2.90
2016,03,29,02,52,2.90
2016,03,29,02,53,2.90
2016,03,29,02,54,2.90
2016,03,29,02,55,2.90
2016,03,29,02,56,2.90
2016,03,29,02,57,2.90
2016,03,29,02,58,2.90
2016,03,29,02,59,2.90
2016,03,29,03,00,2.90
2016,03,29,03,01,2.90
2016,03,29,03,02,2.90
2016,03,29,03,03,2.90
2016,03,29,03,04,2.90
2016,03,29,03,05,2.90
2016,03,29,03,06,2.90
2016,03,29,03,07,2.90
2016,03,29,03,08,2.90
2016,03,29,03,09,2.90
2016,03,29,03,10,2.90
2016,03,29,03,11,2.80
2016,03,29,03,12,2.80
2016,03,29,03,13,2.80
2016,03,29,03,14,2.80
2016,03,29,03,15,2.80
2016,03,29,03,16,2.80
2016,03,29,03,17,2.70
2016,03,29,03,18,2.70
2016,03,29,03,19,2.70
2016,03,29,03,20,2.70
2016,03,29,03,21,2.70
2016,03,29,03,22,2.70
2016,03,29,03,23,2.70
2016,03,29,03,24,2.70
2016,03,29,03,25,2.70
2016,03,29,03,26,2.60
2016,03,29,03,27,2.60
2016,03,29,03,28,2.60
2016,03,29,03,29,2.60
2016,03,29,03,30,2.60
2016,03,29,03,31,2.60
2016,03,29,03,32,2.60
2016,03,29,03,33,2.60
2016,03,29,03,34,2.50
2016,03,29,03,35,2.50
2016,03,29,03,36,2.50
2016,03,29,03,37,2.50
2016,03,29,03,38,2.50
2016,03,29,03,39,2.50
2016,03,29,03,40,2.50
2016,03,29,03,41,2.50
2016,03,29,03,42,2.50
2016,03,29,03,43,2.50
2016,03,29,03,44,2.40
2016,03,29,03,45,2.40
2016,03,29,03,46,2.40
2016,03,29,03,47,2.40
2016,03,29,03,48,2.40
2016,03,29,03,49,2.40
2016,03,29,03,50,2.40
2016,03,29,03,51,2.40
2016,03,29,03,52,2.40
2016,03,29,03,53,2.40
2016,03,29,03,54,2.40
2016,03,29,03,55,2.40
2016,03,29,03,56,2.40
2016,03,29,03,57,2.30
2016,03,29,03,58,2.30
2016,03,29,03,59,2.30
2016,03,29,04,00,2.30
2016,03,29,04,01,2.30
2016,03,29,04,02,2.30
2016,03,29,04,03,2.30
2016,03,29,04,04,2.30
2016,03,29,04,05,2.30
2016,03,29,04,06,2.30
2016,03,29,04,07,2.30
2016,03,29,04,08,2.30
2016,03,29,04,09,2.30
2016,03,29,04,10,2.40
2016,03,29,04,11,2.40
2016,03,29,04,12,2.40
2016,03,29,04,13,2.50
2016,03,29,04,14,2.40
2016,03,29,04,15,2.40
2016,03,29,04,16,2.40
2016,03,29,04,17,2.40
2016,03,29,04,18,2.40
2016,03,29,04,19,2.40
2016,03,29,04,20,2.40
2016,03,29,04,21,2.40
2016,03,29,04,22,2.40
2016,03,29,04,23,2.30
2016,03,29,04,24,2.30
2016,03,29,04,25,2.30
2016,03,29,04,26,2.30
2016,03,29,04,27,2.30
2016,03,29,04,28,2.30
2016,03,29,04,29,2.20
2016,03,29,04,30,2.20
2016,03,29,04,31,2.20
2016,03,29,04,32,2.20
2016,03,29,04,33,2.20
2016,03,29,04,34,2.20
2016,03,29,04,35,2.20
2016,03,29,04,36,2.20
2016,03,29,04,37,2.20
2016,03,29,04,38,2.20
2016,03,29,04,39,2.20
2016,03,29,04,40,2.20
2016,03,29,04,41,2.20
2016,03,29,04,42,2.10
2016,03,29,04,43,2.10
2016,03,29,04,44,2.10
2016,03,29,04,45,2.00
2016,03,29,04,46,2.00
2016,03,29,04,47,2.00
2016,03,29,04,48,2.00
2016,03,29,04,49,1.90
2016,03,29,04,50,1.90
2016,03,29,04,51,1.90
2016,03,29,04,52,1.90
2016,03,29,04,53,1.90
2016,03,29,04,54,1.90
2016,03,29,04,55,1.90
2016,03,29,04,56,1.90
2016,03,29,04,57,1.90
2016,03,29,04,58,1.90
2016,03,29,04,59,2.00
2016,03,29,05,00,2.00
2016,03,29,05,01,2.00
2016,03,29,05,02,2.00
2016,03,29,05,03,2.00
2016,03,29,05,04,2.00
2016,03,29,05,05,2.00
2016,03,29,05,06,2.00
2016,03,29,05,07,2.00
2016,03,29,05,08,2.00
2016,03,29,05,09,2.00
2016,03,29,05,10,2.00
2016,03,29,05,11,2.00
2016,03,29,05,12,2.00
2016,03,29,05,13,2.00
2016,03,29,05,14,2.00
2016,03,29,05,15,2.00
2016,03,29,05,16,2.00
2016,03,29,05,17,2.10
2016,03,29,05,18,2.10
2016,03,29,05,19,2.00
2016,03,29,05,20,2.00
2016,03,29,05,21,2.00
2016,03,29,05,22,2.00
2016,03,29,05,23,2.00
2016,03,29,05,24,2.00
2016,03,29,05,25,1.90
2016,03,29,05,26,1.90
2016,03,29,05,27,1.90
2016,03,29,05,28,2.00
2016,03,29,05,29,1.90
2016,03,29,05,30,2.00
2016,03,29,05,31,1.90
2016,03,29,05,32,1.90
2016,03,29,05,33,1.90
2016,03,29,05,34,1.90
2016,03,29,05,35,1.90
2016,03,29,05,36,1.90
2016,03,29,05,37,1.90
2016,03,29,05,38,1.90
2016,03,29,05,39,1.90
2016,03,29,05,40,1.90
2016,03,29,05,41,1.90
2016,03,29,05,42,1.90
2016,03,29,05,43,1.90
2016,03,29,05,44,1.90
2016,03,29,05,45,1.90
2016,03,29,05,46,1.90
2016,03,29,05,47,1.90
2016,03,29,05,48,1.90
2016,03,29,05,49,1.90
2016,03,29,05,50,1.90
2016,03,29,05,51,2.00
2016,03,29,05,52,1.90
2016,03,29,05,53,1.90
2016,03,29,05,54,1.90
2016,03,29,05,55,1.90
2016,03,29,05,56,1.90
2016,03,29,05,57,1.90
2016,03,29,05,58,1.90
2016,03,29,05,59,1.90
2016,03,29,06,00,1.90
2016,03,29,06,01,1.90
2016,03,29,06,02,1.90
2016,03,29,06,03,1.90
2016,03,29,06,04,1.90
2016,03,29,06,05,1.90
2016,03,29,06,06,1.90
2016,03,29,06,07,1.90
2016,03,29,06,08,1.90
2016,03,29,06,09,1.80
2016,03,29,06,10,1.80
2016,03,29,06,11,1.80
2016,03,29,06,12,1.80
2016,03,29,06,13,1.80
2016,03,29,06,14,1.80
2016,03,29,06,15,1.80
2016,03,29,06,16,1.70
2016,03,29,06,17,1.70
2016,03,29,06,18,1.70
2016,03,29,06,19,1.70
2016,03,29,06,20,1.70
2016,03,29,06,21,1.70
2016,03,29,06,22,1.70
2016,03,29,06,23,1.70
2016,03,29,06,24,1.70
2016,03,29,06,25,1.70
2016,03,29,06,26,1.60
2016,03,29,06,27,1.60
2016,03,29,06,28,1.60
2016,03,29,06,29,1.60
2016,03,29,06,30,1.60
2016,03,29,06,31,1.60
2016,03,29,06,32,1.70
2016,03,29,06,33,1.60
2016,03,29,06,34,1.60
2016,03,29,06,35,1.60
2016,03,29,06,36,1.60
2016,03,29,06,37,1.60
2016,03,29,06,38,1.60
2016,03,29,06,39,1.50
2016,03,29,06,40,1.50
2016,03,29,06,41,1.50
2016,03,29,06,42,1.50
2016,03,29,06,43,1.40
2016,03,29,06,44,1.40
2016,03,29,06,45,1.40
2016,03,29,06,46,1.40
2016,03,29,06,47,1.40
2016,03,29,06,48,1.40
2016,03,29,06,49,1.40
2016,03,29,06,50,1.40
2016,03,29,06,51,1.40
2016,03,29,06,52,1.40
2016,03,29,06,53,1.40
2016,03,29,06,54,1.40
2016,03,29,06,55,1.40
2016,03,29,06,56,1.40
2016,03,29,06,57,1.50
2016,03,29,06,58,1.50
2016,03,29,06,59,1.50
2016,03,29,07,00,1.50
2016,03,29,07,01,1.50
2016,03,29,07,02,1.50
2016,03,29,07,03,1.50
2016,03,29,07,04,1.50
2016,03,29,07,05,1.40
2016,03,29,07,06,1.40
2016,03,29,07,07,1.40
2016,03,29,07,08,1.40
2016,03,29,07,09,1.40
2016,03,29,07,10,1.40
2016,03,29,07,11,1.40
2016,03,29,07,12,1.50
2016,03,29,07,13,1.50
2016,03,29,07,14,1.50
2016,03,29,07,15,1.50
2016,03,29,07,16,1.50
2016,03,29,07,17,1.50
2016,03,29,07,18,1.50
2016,03,29,07,19,1.50
2016,03,29,07,20,1.50
2016,03,29,07,21,1.40
2016,03,29,07,22,1.40
2016,03,29,07,23,1.40
2016,03,29,07,24,1.40
2016,03,29,07,25,1.40
2016,03,29,07,26,1.40
2016,03,29,07,27,1.40
2016,03,29,07,28,1.40
2016,03,29,07,29,1.40
2016,03,29,07,30,1.50
2016,03,29,07,31,1.50
2016,03,29,07,32,1.50
2016,03,29,07,33,1.60
2016,03,29,07,34,1.60
2016,03,29,07,35,1.60
2016,03,29,07,36,1.60
2016,03,29,07,37,1.70
2016,03,29,07,38,1.70
2016,03,29,07,39,1.80
2016,03,29,07,40,1.90
2016,03,29,07,41,2.10
2016,03,29,07,42,2.20
2016,03,29,07,43,2.30
2016,03,29,07,44,2.40
2016,03,29,07,45,2.50
2016,03,29,07,46,2.50
2016,03,29,07,47,2.60
2016,03,29,07,48,2.60
2016,03,29,07,49,2.60
2016,03,29,07,50,2.60
2016,03,29,07,51,2.60
2016,03,29,07,52,2.50
2016,03,29,07,53,2.50
2016,03,29,07,54,2.50
2016,03,29,07,55,2.50
2016,03,29,07,56,2.50
2016,03,29,07,57,2.60
2016,03,29,07,58,2.60
2016,03,29,07,59,2.60
2016,03,29,08,00,2.70
2016,03,29,08,01,2.70
2016,03,29,08,02,2.70
2016,03,29,08,03,2.70
2016,03,29,08,04,2.80
2016,03,29,08,05,2.80
2016,03,29,08,06,2.80
2016,03,29,08,07,2.80
2016,03,29,08,08,2.90
2016,03,29,08,09,2.90
2016,03,29,08,10,3.00
2016,03,29,08,11,3.10
2016,03,29,08,12,3.20
2016,03,29,08,13,3.20
2016,03,29,08,14,3.30
2016,03,29,08,15,3.40
2016,03,29,08,16,3.50
2016,03,29,08,17,3.50
2016,03,29,08,18,3.60
2016,03,29,08,19,3.70
2016,03,29,08,20,3.70
2016,03,29,08,21,3.80
2016,03,29,08,22,3.80
2016,03,29,08,23,3.90
2016,03,29,08,24,3.90
2016,03,29,08,25,4.00
2016,03,29,08,26,4.00
2016,03,29,08,27,4.10
2016,03,29,08,28,4.20
2016,03,29,08,29,4.20
2016,03,29,08,30,4.30
2016,03,29,08,31,4.40
2016,03,29,08,32,4.50
2016,03,29,08,33,4.50
2016,03,29,08,34,4.60
2016,03,29,08,35,4.60
2016,03,29,08,36,4.70
2016,03,29,08,37,4.70
2016,03,29,08,38,4.80
2016,03,29,08,39,4.80
2016,03,29,08,40,4.80
2016,03,29,08,41,4.90
2016,03,29,08,42,5.00
2016,03,29,08,43,5.00
2016,03,29,08,44,5.10
2016,03,29,08,45,5.20
2016,03,29,08,46,5.30
2016,03,29,08,47,5.30
2016,03,29,08,48,5.40
2016,03,29,08,49,5.40
2016,03,29,08,50,5.50
2016,03,29,08,51,5.50
2016,03,29,08,52,5.60
2016,03,29,08,53,5.60
2016,03,29,08,54,5.70
2016,03,29,08,55,5.80
2016,03,29,08,56,5.80
2016,03,29,08,57,5.90
2016,03,29,08,58,6.00
2016,03,29,08,59,6.10
2016,03,29,09,00,6.10
2016,03,29,09,01,6.20
2016,03,29,09,02,6.20
2016,03,29,09,03,6.30
2016,03,29,09,04,6.40
2016,03,29,09,05,6.40
2016,03,29,09,06,6.50
2016,03,29,09,07,6.50
2016,03,29,09,08,6.60
2016,03,29,09,09,6.70
2016,03,29,09,10,6.80
2016,03,29,09,11,6.80
2016,03,29,09,12,6.90
2016,03,29,09,13,7.00
2016,03,29,09,14,7.00
2016,03,29,09,15,7.20
2016,03,29,09,16,7.30
2016,03,29,09,17,7.40
2016,03,29,09,18,7.50
2016,03,29,09,19,7.50
2016,03,29,09,20,7.60
2016,03,29,09,21,7.70
2016,03,29,09,22,7.70
2016,03,29,09,23,7.80
2016,03,29,09,24,7.90
2016,03,29,09,25,7.90
2016,03,29,09,26,8.00
2016,03,29,09,27,8.10
2016,03,29,09,28,8.20
2016,03,29,09,29,8.30
2016,03,29,09,30,8.30
2016,03,29,09,31,8.40
2016,03,29,09,32,8.40
2016,03,29,09,33,8.50
2016,03,29,09,34,8.60
2016,03,29,09,35,8.70
2016,03,29,09,36,8.70
2016,03,29,09,37,8.80
2016,03,29,09,38,8.80
2016,03,29,09,39,8.90
2016,03,29,09,40,9.10
2016,03,29,09,41,9.20
2016,03,29,09,42,9.30
2016,03,29,09,43,9.50
2016,03,29,09,44,9.60
2016,03,29,09,45,9.70
2016,03,29,09,46,9.80
2016,03,29,09,47,9.90
2016,03,29,09,48,10.00
2016,03,29,09,49,10.10
2016,03,29,09,50,10.20
2016,03,29,09,51,10.30
2016,03,29,09,52,10.40
2016,03,29,09,53,10.40
2016,03,29,09,54,10.50
2016,03,29,09,55,10.50
2016,03,29,09,56,10.60
2016,03,29,09,57,10.70
2016,03,29,09,58,10.70
2016,03,29,09,59,10.70
2016,03,29,10,00,10.80
2016,03,29,10,01,10.80
2016,03,29,10,02,10.80
2016,03,29,10,03,10.80
2016,03,29,10,04,10.80
2016,03,29,10,05,10.90
2016,03,29,10,06,10.90
2016,03,29,10,07,10.90
2016,03,29,10,08,11.00
2016,03,29,10,09,11.00
2016,03,29,10,10,11.10
2016,03,29,10,11,11.10
2016,03,29,10,12,11.10
2016,03,29,10,13,11.10
2016,03,29,10,14,11.10
2016,03,29,10,15,11.10
2016,03,29,10,16,11.10
2016,03,29,10,17,11.10
2016,03,29,10,18,11.20
2016,03,29,10,19,11.20
2016,03,29,10,20,11.20
2016,03,29,10,21,11.30
2016,03,29,10,22,11.40
2016,03,29,10,23,11.50
2016,03,29,10,24,11.60
2016,03,29,10,25,11.60
2016,03,29,10,26,11.70
2016,03,29,10,27,11.70
2016,03,29,10,28,11.80
2016,03,29,10,29,11.80
2016,03,29,10,30,11.90
2016,03,29,10,31,11.90
2016,03,29,10,32,12.00
2016,03,29,10,33,12.00
2016,03,29,10,34,12.10
2016,03,29,10,35,12.10
2016,03,29,10,36,12.20
2016,03,29,10,37,12.20
2016,03,29,10,38,12.20
2016,03,29,10,39,12.30
2016,03,29,10,40,12.30
2016,03,29,10,41,12.30
2016,03,29,10,42,12.30
2016,03,29,10,43,12.30
2016,03,29,10,44,12.30
2016,03,29,10,45,12.30
2016,03,29,10,46,12.30
2016,03,29,10,47,12.40
2016,03,29,10,48,12.50
2016,03,29,10,49,12.50
2016,03,29,10,50,12.60
2016,03,29,10,51,12.70
2016,03,29,10,52,12.80
2016,03,29,10,53,12.90
2016,03,29,10,54,13.00
2016,03,29,10,55,13.10
2016,03,29,10,56,13.20
2016,03,29,10,57,13.30
2016,03,29,10,58,13.30
2016,03,29,10,59,13.30
2016,03,29,11,00,13.30
2016,03,29,11,01,13.30
2016,03,29,11,02,13.30
2016,03,29,11,03,13.40
2016,03,29,11,04,13.40
2016,03,29,11,05,13.50
2016,03,29,11,06,13.50
2016,03,29,11,07,13.60
2016,03,29,11,08,13.70
2016,03,29,11,09,13.80
2016,03,29,11,10,13.90
2016,03,29,11,11,14.00
2016,03,29,11,12,14.10
2016,03,29,11,13,14.20
2016,03,29,11,14,14.30
2016,03,29,11,15,14.30
2016,03,29,11,16,14.40
2016,03,29,11,17,14.40
2016,03,29,11,18,14.30
2016,03,29,11,19,14.40
2016,03,29,11,20,14.50
2016,03,29,11,21,14.50
2016,03,29,11,22,14.60
2016,03,29,11,23,14.70
2016,03,29,11,24,14.70
2016,03,29,11,25,14.80
2016,03,29,11,26,14.90
2016,03,29,11,27,14.90
2016,03,29,11,28,15.00
2016,03,29,11,29,15.10
2016,03,29,11,30,15.10
2016,03,29,11,31,15.10
2016,03,29,11,32,15.10
2016,03,29,11,33,15.00
2016,03,29,11,34,14.90
2016,03,29,11,35,14.80
2016,03,29,11,36,14.70
2016,03,29,11,37,14.70
2016,03,29,11,38,14.70
2016,03,29,11,39,14.60
2016,03,29,11,40,14.60
2016,03,29,11,41,14.70
2016,03,29,11,42,14.70
2016,03,29,11,43,14.70
2016,03,29,11,44,14.70
2016,03,29,11,45,14.70
2016,03,29,11,46,14.60
2016,03,29,11,47,14.60
2016,03,29,11,48,14.60
2016,03,29,11,49,14.70
2016,03,29,11,50,14.70
2016,03,29,11,51,14.70
2016,03,29,11,52,14.80
2016,03,29,11,53,14.80
2016,03,29,11,54,14.90
2016,03,29,11,55,15.00
2016,03,29,11,56,15.00
2016,03,29,11,57,15.10
2016,03,29,11,58,15.10
2016,03,29,11,59,15.10
2016,03,29,12,00,15.20
2016,03,29,12,01,15.20
2016,03,29,12,02,15.20
2016,03,29,12,03,15.20
2016,03,29,12,04,15.20
2016,03,29,12,05,15.20
2016,03,29,12,06,15.20
2016,03,29,12,07,15.20
2016,03,29,12,08,15.30
2016,03,29,12,09,15.40
2016,03,29,12,10,15.50
2016,03,29,12,11,15.50
2016,03,29,12,12,15.50
2016,03,29,12,13,15.50
2016,03,29,12,14,15.50
2016,03,29,12,15,15.60
2016,03,29,12,16,15.60
2016,03,29,12,17,15.70
2016,03,29,12,18,15.70
2016,03,29,12,19,15.70
2016,03,29,12,20,15.80
2016,03,29,12,21,15.80
2016,03,29,12,22,15.80
2016,03,29,12,23,15.80
2016,03,29,12,24,15.80
2016,03,29,12,25,15.80
2016,03,29,12,26,15.80
2016,03,29,12,27,15.80
2016,03,29,12,28,15.90
2016,03,29,12,29,16.00
2016,03,29,12,30,16.00
2016,03,29,12,31,16.00
2016,03,29,12,32,15.90
2016,03,29,12,33,16.00
2016,03,29,12,34,16.00
2016,03,29,12,35,16.10
2016,03,29,12,36,16.20
2016,03,29,12,37,16.20
2016,03,29,12,38,16.20
2016,03,29,12,39,16.20
2016,03,29,12,40,16.20
2016,03,29,12,41,16.20
2016,03,29,12,42,16.10
2016,03,29,12,43,16.10
2016,03,29,12,44,16.10
2016,03,29,12,45,16.20
2016,03,29,12,46,16.20
2016,03,29,12,47,16.30
2016,03,29,12,48,16.20
2016,03,29,12,49,16.10
2016,03,29,12,50,16.00
2016,03,29,12,51,16.00
2016,03,29,12,52,16.00
2016,03,29,12,53,16.00
2016,03,29,12,54,16.00
2016,03,29,12,55,16.10
2016,03,29,12,56,16.20
2016,03,29,12,57,16.10
2016,03,29,12,58,16.10
2016,03,29,12,59,16.10
2016,03,29,13,00,16.10
2016,03,29,13,01,16.20
2016,03,29,13,02,16.30
2016,03,29,13,03,16.30
2016,03,29,13,04,16.20
2016,03,29,13,05,16.20
2016,03,29,13,06,16.20
2016,03,29,13,07,16.20
2016,03,29,13,08,16.20
2016,03,29,13,09,16.30
2016,03,29,13,10,16.30
2016,03,29,13,11,16.20
2016,03,29,13,12,16.20
2016,03,29,13,13,16.20
2016,03,29,13,14,16.20
2016,03,29,13,15,16.20
2016,03,29,13,16,16.20
2016,03,29,13,17,16.20
2016,03,29,13,18,16.20
2016,03,29,13,19,16.30
2016,03,29,13,20,16.30
2016,03,29,13,21,16.30
2016,03,29,13,22,16.40
2016,03,29,13,23,16.50
2016,03,29,13,24,16.60
2016,03,29,13,25,16.60
2016,03,29,13,26,16.70
2016,03,29,13,27,16.70
2016,03,29,13,28,16.70
2016,03,29,13,29,16.60
2016,03,29,13,30,16.50
2016,03,29,13,31,16.50
2016,03,29,13,32,16.30
2016,03,29,13,33,16.20
2016,03,29,13,34,16.20
2016,03,29,13,35,16.10
2016,03,29,13,36,16.10
2016,03,29,13,37,16.10
2016,03,29,13,38,16.10
2016,03,29,13,39,16.10
2016,03,29,13,40,16.20
2016,03,29,13,41,16.20
2016,03,29,13,42,16.20
2016,03,29,13,43,16.20
2016,03,29,13,44,16.20
2016,03,29,13,45,16.20
2016,03,29,13,46,16.20
2016,03,29,13,47,16.20
2016,03,29,13,48,16.10
2016,03,29,13,49,16.10
2016,03,29,13,50,16.10
2016,03,29,13,51,16.20
2016,03,29,13,52,16.20
2016,03,29,13,53,16.30
2016,03,29,13,54,16.30
2016,03,29,13,55,16.30
2016,03,29,13,56,16.30
2016,03,29,13,57,16.30
2016,03,29,13,58,16.20
2016,03,29,13,59,16.10
2016,03,29,14,00,16.10
2016,03,29,14,01,16.10
2016,03,29,14,02,16.10
2016,03,29,14,03,16.10
2016,03,29,14,04,16.10
2016,03,29,14,05,16.10
2016,03,29,14,06,16.10
2016,03,29,14,07,16.10
2016,03,29,14,08,16.20
2016,03,29,14,09,16.30
2016,03,29,14,10,16.30
2016,03,29,14,11,16.30
2016,03,29,14,12,16.30
2016,03,29,14,13,16.20
2016,03,29,14,14,16.10
2016,03,29,14,15,16.10
2016,03,29,14,16,16.00
2016,03,29,14,17,16.00
2016,03,29,14,18,15.90
2016,03,29,14,19,15.90
2016,03,29,14,20,16.00
2016,03,29,14,21,15.90
2016,03,29,14,22,15.90
2016,03,29,14,23,15.90
2016,03,29,14,24,15.90
2016,03,29,14,25,16.00
2016,03,29,14,26,16.00
2016,03,29,14,27,16.10
2016,03,29,14,28,16.10
2016,03,29,14,29,16.10
2016,03,29,14,30,16.10
2016,03,29,14,31,16.10
2016,03,29,14,32,16.10
2016,03,29,14,33,16.10
2016,03,29,14,34,16.10
2016,03,29,14,35,16.10
2016,03,29,14,36,16.10
2016,03,29,14,37,16.10
2016,03,29,14,38,16.20
2016,03,29,14,39,16.20
2016,03,29,14,40,16.20
2016,03,29,14,41,16.20
2016,03,29,14,42,16.10
2016,03,29,14,43,16.00
2016,03,29,14,44,15.90
2016,03,29,14,45,15.90
2016,03,29,14,46,15.90
2016,03,29,14,47,15.90
2016,03,29,14,48,16.00
2016,03,29,14,49,16.00
2016,03,29,14,50,16.00
2016,03,29,14,51,16.00
2016,03,29,14,52,16.00
2016,03,29,14,53,16.10
2016,03,29,14,54,16.10
2016,03,29,14,55,16.00
2016,03,29,14,56,16.00
2016,03,29,14,57,16.10
2016,03,29,14,58,16.10
2016,03,29,14,59,16.00
2016,03,29,15,00,15.90
2016,03,29,15,01,15.80
2016,03,29,15,02,15.80
2016,03,29,15,03,15.80
2016,03,29,15,04,15.80
2016,03,29,15,05,15.80
2016,03,29,15,06,15.80
2016,03,29,15,07,15.80
2016,03,29,15,08,15.80
2016,03,29,15,09,15.80
2016,03,29,15,10,15.80
2016,03,29,15,11,15.80
2016,03,29,15,12,15.80
2016,03,29,15,13,15.80
2016,03,29,15,14,15.80
2016,03,29,15,15,15.90
2016,03,29,15,16,15.90
2016,03,29,15,17,15.90
2016,03,29,15,18,15.80
2016,03,29,15,19,15.80
2016,03,29,15,20,15.80
2016,03,29,15,21,15.80
2016,03,29,15,22,15.80
2016,03,29,15,23,15.80
2016,03,29,15,24,15.80
2016,03,29,15,25,15.80
2016,03,29,15,26,15.80
2016,03,29,15,27,15.90
2016,03,29,15,28,15.80
2016,03,29,15,29,15.80
2016,03,29,15,30,15.80
2016,03,29,15,31,15.80
2016,03,29,15,32,15.80
2016,03,29,15,33,15.80
2016,03,29,15,34,15.90
2016,03,29,15,35,15.90
2016,03,29,15,36,16.00
2016,03,29,15,37,16.00
2016,03,29,15,38,16.10
2016,03,29,15,39,16.10
2016,03,29,15,40,16.20
2016,03,29,15,41,16.30
2016,03,29,15,42,16.20
2016,03,29,15,43,16.20
2016,03,29,15,44,16.00
2016,03,29,15,45,15.90
2016,03,29,15,46,15.90
2016,03,29,15,47,15.80
2016,03,29,15,48,15.80
2016,03,29,15,49,15.80
2016,03,29,15,50,15.80
2016,03,29,15,51,15.80
2016,03,29,15,52,15.90
2016,03,29,15,53,15.90
2016,03,29,15,54,16.00
2016,03,29,15,55,16.10
2016,03,29,15,56,16.10
2016,03,29,15,57,16.20
2016,03,29,15,58,16.20
2016,03,29,15,59,16.20
2016,03,29,16,00,16.20
2016,03,29,16,01,16.20
2016,03,29,16,02,16.20
2016,03,29,16,03,16.10
2016,03,29,16,04,16.00
2016,03,29,16,05,16.00
2016,03,29,16,06,16.00
2016,03,29,16,07,16.00
2016,03,29,16,08,16.10
2016,03,29,16,09,16.10
2016,03,29,16,10,16.10
2016,03,29,16,11,16.10
2016,03,29,16,12,16.10
2016,03,29,16,13,16.10
2016,03,29,16,14,16.10
2016,03,29,16,15,16.10
2016,03,29,16,16,16.20
2016,03,29,16,17,16.20
2016,03,29,16,18,16.20
2016,03,29,16,19,16.20
2016,03,29,16,20,16.20
2016,03,29,16,21,16.20
2016,03,29,16,22,16.20
2016,03,29,16,23,16.30
2016,03,29,16,24,16.30
2016,03,29,16,25,16.30
2016,03,29,16,26,16.40
2016,03,29,16,27,16.50
2016,03,29,16,28,16.50
2016,03,29,16,29,16.60
2016,03,29,16,30,16.60
2016,03,29,16,31,16.60
2016,03,29,16,32,16.60
2016,03,29,16,33,16.60
2016,03,29,16,34,16.60
2016,03,29,16,35,16.60
2016,03,29,16,36,16.60
2016,03,29,16,37,16.60
2016,03,29,16,38,16.50
2016,03,29,16,39,16.50
2016,03,29,16,40,16.40
2016,03,29,16,41,16.30
2016,03,29,16,42,16.30
2016,03,29,16,43,16.20
2016,03,29,16,44,16.20
2016,03,29,16,45,16.30
2016,03,29,16,46,16.30
2016,03,29,16,47,16.30
2016,03,29,16,48,16.20
2016,03,29,16,49,16.20
2016,03,29,16,50,16.20
2016,03,29,16,51,16.10
2016,03,29,16,52,16.10
2016,03,29,16,53,16.10
2016,03,29,16,54,16.10
2016,03,29,16,55,16.10
2016,03,29,16,56,16.20
2016,03,29,16,57,16.20
2016,03,29,16,58,16.20
2016,03,29,16,59,16.20
2016,03,29,17,00,16.20
2016,03,29,17,01,16.20
2016,03,29,17,02,16.20
2016,03,29,17,03,16.20
2016,03,29,17,04,16.10
2016,03,29,17,05,16.10
2016,03,29,17,06,16.10
2016,03,29,17,07,16.10
2016,03,29,17,08,16.10
2016,03,29,17,09,16.10
2016,03,29,17,10,16.00
2016,03,29,17,11,16.00
2016,03,29,17,12,15.90
2016,03,29,17,13,15.90
2016,03,29,17,14,15.90
2016,03,29,17,15,15.90
2016,03,29,17,16,15.90
2016,03,29,17,17,15.90
2016,03,29,17,18,15.90
2016,03,29,17,19,15.90
2016,03,29,17,20,15.90
2016,03,29,17,21,15.90
2016,03,29,17,22,15.90
2016,03,29,17,23,15.90
2016,03,29,17,24,16.00
2016,03,29,17,25,16.10
2016,03,29,17,26,16.10
2016,03,29,17,27,16.20
2016,03,29,17,28,16.20
2016,03,29,17,29,16.30
2016,03,29,17,30,16.30
2016,03,29,17,31,16.30
2016,03,29,17,32,16.30
2016,03,29,17,33,16.30
2016,03,29,17,34,16.30
2016,03,29,17,35,16.30
2016,03,29,17,36,16.30
2016,03,29,17,37,16.30
2016,03,29,17,38,16.30
2016,03,29,17,39,16.30
2016,03,29,17,40,16.30
2016,03,29,17,41,16.20
2016,03,29,17,42,16.20
2016,03,29,17,43,16.20
2016,03,29,17,44,16.20
2016,03,29,17,45,16.30